Stations météo

réclame
Mon MeteoGroup
Stornoway, Grande-Bretagne (3026): Température de l'air & dewpoint: 13.12.2018 07:00:00 - 19.12.2018 07:00:00 (GMT)Stornoway, Grande-Bretagne (3026): Température de l'air -20cm & Température de l'air -100cm: 13.12.2018 07:00:00 - 19.12.2018 07:00:00 (GMT)Stornoway, Grande-Bretagne (3026): Vitesse du vent & gusts: 13.12.2018 07:00:00 - 19.12.2018 07:00:00 (GMT)Stornoway, Grande-Bretagne (3026): Direction du vent: 13.12.2018 07:00:00 - 19.12.2018 07:00:00 (GMT)Stornoway, Grande-Bretagne (3026): reduced air pressure: 13.12.2018 07:00:00 - 19.12.2018 07:00:00 (GMT)Stornoway, Grande-Bretagne (3026): visibility: 13.12.2018 07:00:00 - 19.12.2018 07:00:00 (GMT)Stornoway, Grande-Bretagne (3026): Ensoleillement: 13.12.2018 07:00:00 - 19.12.2018 07:00:00 (GMT)Stornoway, Grande-Bretagne (3026): Quantités de précipitations: 13.12.2018 07:00:00 - 19.12.2018 07:00:00 (GMT)
Date & Time tt [°C] td [°C] tt -20cm [°C] tt -100cm [°C] ff [km/h] ff [knt] fx [km/h] fx [knt] dd ppp [hPa] vv [km] sd [min] rr [mm]
19.12.2018 07:00:00 7,8 4,9 - - 35 19 54 29 S 990,2 15 0 0,0
19.12.2018 06:00:00 7,8 4,8 - - 34 18 54 29 S 989,9 19 0 0,0
19.12.2018 05:00:00 8,1 5,0 - - 35 19 50 27 S 990,0 19 0 0,0
19.12.2018 04:00:00 7,9 4,9 - - 31 17 54 29 S 990,1 23 0 0,0
19.12.2018 03:00:00 8,2 5,0 - - 34 18 50 27 S 990,3 19 0 0,0
19.12.2018 02:00:00 8,2 5,3 - - 31 17 50 27 S 990,2 21 0 0,0
19.12.2018 01:00:00 8,2 5,8 - - 28 15 - - S 990,3 22 0 0,0
19.12.2018 00:00:00 6,4 4,4 - - 21 11 - - SSW 990,2 45 - 0,4
18.12.2018 23:00:00 7,9 5,2 - - 31 17 52 28 S 990,2 35 0 0,0
18.12.2018 22:00:00 8,1 4,9 - - 35 19 59 32 S 989,9 35 0 0,0
18.12.2018 21:00:00 8,8 6,3 - - 39 21 54 29 S 989,6 19 0 0,0
18.12.2018 20:00:00 8,5 6,1 - - 34 18 54 29 SSW 989,5 24 0 0,0
18.12.2018 19:00:00 8,6 6,2 - - 37 20 50 27 S 989,0 22 0 0,0
18.12.2018 18:00:00 8,2 6,4 - - 34 18 48 26 S 988,8 6 0 0,0
18.12.2018 17:00:00 7,5 6,0 - - 37 20 52 28 S 988,5 13 0 2,6
18.12.2018 16:00:00 9,0 6,7 - - 35 19 46 25 S 988,0 26 0 0,0
18.12.2018 15:00:00 8,9 7,4 - - 29 16 46 25 S 988,0 18 0 0,2
18.12.2018 14:00:00 8,9 7,1 - - 29 16 - - S 987,9 13 0 0,0
18.12.2018 13:00:00 8,9 6,6 - - 28 15 - - S 988,0 20 0 0,0
18.12.2018 12:00:00 8,3 6,3 - - 26 14 52 28 SSW 987,7 23 0 0,0
18.12.2018 11:00:00 8,7 6,8 - - 41 22 78 42 SSW 986,7 29 0 0,0
18.12.2018 10:00:00 10,2 8,9 - - 46 25 76 41 S 984,6 8 0 2,8
18.12.2018 09:00:00 10,7 8,3 6,7 7,2 41 22 61 33 SSE 983,2 9 0 1,0
18.12.2018 08:00:00 11,1 8,4 - - 42 23 61 33 SSE 983,9 14 0 0,2
18.12.2018 07:00:00 11,0 8,7 - - 52 28 70 38 SSE 985,5 7 0 0,2
18.12.2018 06:00:00 11,6 8,9 - - 44 24 70 38 S 986,9 12 0 0,0
18.12.2018 05:00:00 11,0 9,5 - - 41 22 72 39 SSE 988,7 10 0 0,0
18.12.2018 04:00:00 11,2 9,9 - - 50 27 68 37 SSE 989,9 7 0 1,0
18.12.2018 03:00:00 10,3 9,0 - - 39 21 52 28 SSE 991,3 8 0 2,0
18.12.2018 02:00:00 10,3 9,3 - - 39 21 57 31 SSE 992,3 6 0 1,4
18.12.2018 01:00:00 10,4 9,3 - - 41 22 67 36 SSE 993,5 7 0 0,6
18.12.2018 00:00:00 10,5 9,1 - - 44 24 70 38 SSE 994,3 9 - 1,0
17.12.2018 23:00:00 10,2 8,8 - - 48 26 67 36 SSE 994,6 6 0 2,0
17.12.2018 22:00:00 10,1 8,1 - - 41 22 65 35 SSE 995,4 5 0 0,4
17.12.2018 21:00:00 10,6 6,7 - - 46 25 72 39 SSE 995,9 14 0 0,0
17.12.2018 20:00:00 10,6 6,8 - - 46 25 65 35 SSE 996,6 16 0 0,0
17.12.2018 19:00:00 10,0 5,9 - - 48 26 65 35 SSE 997,7 23 0 0,0
17.12.2018 18:00:00 9,7 5,4 - - 44 24 61 33 SSE 998,8 24 0 0,0
17.12.2018 17:00:00 8,9 4,6 - - 34 18 52 28 SE 999,6 19 0 0,0
17.12.2018 16:00:00 9,0 4,4 - - 35 19 55 30 SSE 1001,0 18 0 0,0
17.12.2018 15:00:00 8,8 4,7 - - 37 20 61 33 SSE 1001,3 15 0 0,0
17.12.2018 14:00:00 8,5 4,3 - - 42 23 61 33 S 1001,8 21 0 0,0
17.12.2018 13:00:00 8,1 4,4 - - 41 22 61 33 S 1003,0 18 0 0,0
17.12.2018 12:00:00 8,0 5,5 - - 37 20 50 27 S 1003,4 15 0 0,0
17.12.2018 11:00:00 8,2 5,5 - - 34 18 50 27 S 1004,0 17 0 0,0
17.12.2018 10:00:00 8,3 5,8 - - 31 17 48 26 S 1004,3 18 0 0,0
17.12.2018 09:00:00 8,0 5,5 6,5 7,2 31 17 46 25 S 1003,7 19 0 0,0
17.12.2018 08:00:00 7,6 5,3 - - 29 16 48 26 SSW 1003,4 23 0 0,0
17.12.2018 07:00:00 7,6 5,5 - - 28 15 - - S 1002,8 21 0 0,0
17.12.2018 06:00:00 7,0 5,1 - - 26 14 - - SSW 1002,8 35 0 0,0
17.12.2018 05:00:00 7,3 5,7 - - 31 17 46 25 S 1002,2 19 0 0,2
17.12.2018 04:00:00 7,7 5,9 - - 34 18 46 25 S 1001,9 9 0 0,0
17.12.2018 03:00:00 7,6 6,0 - - 28 15 - - S 1001,6 24 0 0,4
17.12.2018 02:00:00 6,8 5,6 - - 22 12 - - SW 1001,2 3,7 0 0,2
17.12.2018 01:00:00 6,6 5,5 - - 21 11 46 25 SSW 1000,1 12 0 0,6
17.12.2018 00:00:00 7,3 5,8 - - 31 17 54 29 S 999,7 23 - 1,2
16.12.2018 23:00:00 7,0 5,1 - - 34 18 52 28 S 999,2 7 0 0,8
16.12.2018 22:00:00 6,8 4,7 - - 42 23 57 31 S 998,7 11 0 0,2
16.12.2018 21:00:00 6,9 4,8 - - 37 20 55 30 S 998,3 26 0 0,8
16.12.2018 20:00:00 6,2 4,8 - - 31 17 54 29 SSW 997,8 7 0 3,2
16.12.2018 19:00:00 7,3 5,8 - - 26 14 52 28 S 997,1 10 0 0,4
16.12.2018 18:00:00 6,9 4,6 - - 37 20 57 31 SSW 996,2 28 0 0,4
16.12.2018 17:00:00 6,9 5,0 - - 34 18 50 27 SSW 995,5 28 0 1,2
16.12.2018 16:00:00 6,9 5,1 - - 42 23 61 33 S 994,7 10 0 0,0
16.12.2018 15:00:00 6,6 4,3 - - 22 12 - - SSW 994,0 45 0 0,2
16.12.2018 14:00:00 7,1 4,7 - - 21 11 - - SSW 993,3 28 30 0,0
16.12.2018 13:00:00 7,3 4,4 - - 16 9 - - SSW 993,3 50 60 0,0
16.12.2018 12:00:00 6,7 4,6 - - 16 9 - - SW 992,9 40 30 0,0
16.12.2018 11:00:00 4,6 3,4 - - 16 9 - - SW 992,3 50 0 0,0
16.12.2018 10:00:00 3,8 2,8 - - 11 6 - - SSW 991,4 35 0 0,0
16.12.2018 09:00:00 5,0 3,8 6,7 7,4 15 8 - - W 990,1 50 0 0,2
16.12.2018 08:00:00 4,6 4,0 - - 26 14 - - WSW 989,2 14 0 0,2
16.12.2018 07:00:00 2,8 2,1 - - 22 12 - - WSW 988,0 50 0 0,2
16.12.2018 06:00:00 2,5 1,9 - - 15 8 - - W 987,2 16 0 1,0
16.12.2018 05:00:00 3,3 2,7 - - 9 5 - - WNW 986,2 5 0 1,4
16.12.2018 04:00:00 3,7 3,0 - - 9 5 - - WNW 985,5 11 0 0,4
16.12.2018 03:00:00 3,9 3,0 - - 5 3 - - SE 985,5 7 0 1,2
16.12.2018 02:00:00 3,9 2,9 - - 8 4 - - E 985,5 24 0 1,0
16.12.2018 01:00:00 3,8 2,7 - - 15 8 - - SE 985,4 11 0 1,6
16.12.2018 00:00:00 4,0 2,7 - - 11 6 54 29 SE 985,0 8 - 2,4
15.12.2018 23:00:00 5,0 3,3 - - 22 12 - - SSE 985,5 15 0 1,8
15.12.2018 22:00:00 5,3 3,6 - - 21 11 - - SE 985,8 10 0 1,2
15.12.2018 21:00:00 5,2 3,5 - - 21 11 - - SE 986,1 11 0 3,0
15.12.2018 20:00:00 5,1 3,6 - - 18 10 - - SE 986,6 10 0 2,6
15.12.2018 19:00:00 5,1 4,2 - - 26 14 - - SE 987,5 4,1 0 1,0
15.12.2018 18:00:00 5,3 3,6 - - 29 16 48 26 SE 988,1 11 0 0,6
15.12.2018 17:00:00 5,8 3,7 - - 31 17 52 28 SE 989,0 8 0 1,6
15.12.2018 16:00:00 5,8 3,6 - - 34 18 52 28 SE 990,7 8 0 2,2
15.12.2018 15:00:00 4,2 2,4 - - 31 17 50 27 E 992,7 11 0 1,4
15.12.2018 14:00:00 4,5 2,2 - - 37 20 50 27 ESE 994,6 9 0 3,2
15.12.2018 13:00:00 5,2 1,7 - - 41 22 55 30 ESE 996,6 12 0 0,4
15.12.2018 12:00:00 5,5 2,5 - - 35 19 48 26 ESE 997,9 21 0 0,2
15.12.2018 11:00:00 6,0 4,6 - - 13 7 - - ESE 1000,7 10 0 0,4
15.12.2018 10:00:00 6,3 4,8 - - 28 15 - - S 1002,5 10 0 0,6
15.12.2018 09:00:00 6,7 4,7 6,7 7,4 31 17 54 29 S 1003,2 17 0 0,0
15.12.2018 08:00:00 6,9 4,3 - - 37 20 55 30 S 1003,2 12 0 0,0
15.12.2018 07:00:00 7,4 3,8 - - 37 20 59 32 S 1002,6 23 0 0,0
15.12.2018 06:00:00 6,5 3,8 - - 42 23 68 37 S 1003,1 30 0 0,4
15.12.2018 05:00:00 7,3 3,4 - - 42 23 67 36 S 1004,1 20 0 0,0
15.12.2018 04:00:00 7,3 3,3 - - 42 23 68 37 S 1004,4 27 0 0,0
15.12.2018 03:00:00 7,5 2,3 - - 46 25 65 35 S 1004,6 24 0 0,0
15.12.2018 02:00:00 7,4 2,1 - - 42 23 61 33 S 1005,6 26 0 0,0
15.12.2018 01:00:00 7,2 1,3 - - 42 23 65 35 S 1006,9 29 0 0,0
15.12.2018 00:00:00 6,9 1,1 - - 42 23 63 34 S 1007,9 30 - 0,0
14.12.2018 23:00:00 6,8 1,0 - - 42 23 63 34 S 1008,8 24 0 0,0
14.12.2018 22:00:00 6,6 1,6 - - 46 25 70 38 S 1009,0 14 0 0,0
14.12.2018 21:00:00 7,0 1,3 - - 42 23 68 37 S 1009,6 22 0 0,0
14.12.2018 20:00:00 6,7 -0,1 - - 46 25 67 36 S 1009,6 26 0 0,0
14.12.2018 19:00:00 6,6 -1,3 - - 41 22 59 32 S 1010,3 30 0 0,0
14.12.2018 18:00:00 6,7 -1,2 - - 41 22 65 35 S 1010,2 30 0 0,0
14.12.2018 17:00:00 6,4 -0,7 - - 42 23 67 36 S 1011,7 30 0 0,0
14.12.2018 16:00:00 6,2 -1,6 - - 42 23 63 34 S 1011,7 40 0 0,0
14.12.2018 15:00:00 6,3 -1,5 - - 48 26 67 36 S 1012,4 30 0 0,0
14.12.2018 14:00:00 6,0 -1,2 - - 37 20 57 31 S 1013,0 30 30 0,0
14.12.2018 13:00:00 6,1 -1,5 - - 44 24 65 35 S 1014,2 45 12 0,0
14.12.2018 12:00:00 6,0 -1,1 - - 42 23 65 35 S 1014,3 35 0 0,0
14.12.2018 11:00:00 6,2 -0,9 - - 41 22 61 33 S 1014,7 35 0 0,0
14.12.2018 10:00:00 6,3 -0,8 - - 42 23 63 34 S 1014,9 40 0 0,0
14.12.2018 09:00:00 6,5 -0,7 6,9 7,4 44 24 63 34 S 1014,7 30 0 0,0
14.12.2018 08:00:00 6,7 -0,2 - - 35 19 52 28 S 1014,9 35 0 0,0
14.12.2018 07:00:00 6,8 0,4 - - 31 17 59 32 S 1014,9 29 0 0,0
14.12.2018 06:00:00 6,8 1,2 - - 41 22 59 32 S 1015,1 26 0 0,0
14.12.2018 05:00:00 6,7 0,8 - - 42 23 65 35 S 1015,6 20 0 0,0
14.12.2018 04:00:00 7,0 1,9 - - 44 24 63 34 S 1015,6 21 0 0,0
14.12.2018 03:00:00 7,2 1,3 - - 41 22 61 33 S 1015,7 29 0 0,0
14.12.2018 02:00:00 7,5 1,1 - - 42 23 67 36 S 1015,6 26 0 0,0
14.12.2018 01:00:00 7,0 1,4 - - 44 24 63 34 S 1015,1 20 0 0,0
14.12.2018 00:00:00 7,4 1,1 - - 44 24 61 33 S 1015,2 35 - 0,0
13.12.2018 23:00:00 7,5 0,9 - - 42 23 63 34 S 1015,3 29 0 0,0
13.12.2018 22:00:00 7,5 -0,4 - - 46 25 63 34 S 1015,5 40 0 0,0
13.12.2018 21:00:00 7,6 0,1 - - 48 26 63 34 S 1015,1 25 0 0,0
13.12.2018 20:00:00 7,7 -0,2 - - 41 22 59 32 S 1014,7 30 0 0,0
13.12.2018 19:00:00 7,4 -1,6 - - 44 24 59 32 S 1013,7 40 0 0,0
13.12.2018 18:00:00 7,5 -0,8 - - 39 21 54 29 S 1013,1 45 0 0,0
13.12.2018 17:00:00 7,6 -0,6 - - 34 18 55 30 S 1013,1 50 0 0,0
13.12.2018 16:00:00 7,6 -2,0 - - 35 19 52 28 S 1012,6 50 0 0,0
13.12.2018 15:00:00 7,4 -2,2 - - 34 18 46 25 S 1012,2 45 0 0,0
13.12.2018 14:00:00 7,3 -0,9 - - 34 18 48 26 SSE 1012,0 45 0 0,0
13.12.2018 13:00:00 7,1 -1,0 - - 34 18 52 28 SE 1012,1 50 0 0,0
13.12.2018 12:00:00 6,9 0,0 - - 41 22 52 28 SSE 1012,0 30 0 0,0
13.12.2018 11:00:00 7,1 -1,2 - - 34 18 48 26 SE 1012,1 45 0 0,0
13.12.2018 10:00:00 7,2 -0,6 - - 31 17 52 28 SE 1011,9 35 0 0,0
13.12.2018 09:00:00 7,1 -0,7 7,0 7,4 37 20 52 28 SSE 1011,0 45 0 0,0
13.12.2018 08:00:00 7,4 -2,2 - - 34 18 48 26 SSE 1010,9 50 0 0,0
13.12.2018 07:00:00 7,2 0,2 - - 31 17 52 28 SSE 1010,6 35 0 0,0

tt = Température de l'air
td = dewpoint
tt -20cm = Température de l'air -20cm
tt -100cm = Température de l'air -100cm
ff = Vitesse du vent
fx = gusts
dd = Direction du vent
ppp = reduced air pressure
vv = visibility
sd = Ensoleillement
rr = Quantités de précipitations

stations d'obs. à proximité